Regional Weather Roundup
Issued by NWS

Home | Current Version | Previous Version | Graphics & Text | Print | Product List | Glossary On
Versions: 1 2 3 4 5 6 7 8 9 10 11 12 13 14 15 16 17 18 19 20 21 22 23 24 25 26 27 28 29 30 31 32 33 34 35 36 37 38 39 40 41 42 43 44 45 46 47 48 49 50
000
ASUS43 KIND 010959
RWRIN

WEATHER ROUNDUP FOR INDIANA
NATIONAL WEATHER SERVICE INDIANAPOLIS IN
600 AM EDT WED JUL 01 2015

NOTE: "FAIR" INDICATES FEW OR NO CLOUDS BELOW 12,000 FEET WITH NO
SIGNIFICANT WEATHER AND/OR OBSTRUCTIONS TO VISIBILITY.

* - STATION DOES NOT REPORT WEATHER SUCH AS PRECIPITATION OR FOG.

+ - STATION NOT QUALITY CONTROLLED BY THE NATIONAL WEATHER SERVICE.
    USE DATA WITH CAUTION...ESPECIALLY DEWPOINT AND RELATIVE
    HUMIDITY OBSERVATIONS.

INZ001>003-010>013-019-020-011100-
NORTHWEST INDIANA

CITY           SKY/WX    TMP DP  RH WIND       PRES   REMARKS
GARY /AIRPORT/ MOCLDY   N/A N/A N/A N5        29.94S
RENSSELAER +   PTCLDY    57  57 100 CALM      29.93R FOG

$$

LMZ046-743>745-011100-
SOUTHERN LAKE MICHIGAN

STATION/POSITION TIME  TEMP    WIND        PRES    WAVE
                       AIR SEA DIR/SP/G            HT
                 (UTC) (F)     (DEG/KT/KT) (MB)    (FT)
BURNS HARBOR     0900   59     360/ 10/ 13 1014.2R
MICHIGAN CITY    0900   58     340/ 12/ 13   N/A
5NW MICH CITY    0900   58 65  360/ 10/ 14   N/A     3

$$

INZ004-005-014>016-021>024-011100-
NORTH CENTRAL INDIANA

CITY           SKY/WX    TMP DP  RH WIND       PRES   REMARKS
GOSHEN         CLEAR     57  54  89 NW7       29.91R
SOUTH BEND     MOCLDY    58  55  90 N10       29.92S

$$

INZ006>009-017-018-025>027-011100-
NORTHEAST INDIANA

CITY           SKY/WX    TMP DP  RH WIND       PRES   REMARKS
ANGOLA *+      PTCLDY    55  54  94 CALM      29.88S
FORT WAYNE     PTCLDY    57  55  93 W6        29.90R

$$

INZ028-029-035-036-043>045-051>053-011100-
WEST CENTRAL INDIANA

CITY           SKY/WX    TMP DP  RH WIND       PRES   REMARKS
CRAWFORDSVL +    N/A     56  56  97 CALM      29.91S FOG
GREENCASTLE +  MOCLDY    61  55  82 CALM      29.91S
LAFAYETTE      PTCLDY    58  56  93 CALM      29.91R
TERRE HAUTE    MOCLDY    63  62  97 CALM      29.89S FOG

$$

INZ030>032-037>040-046>048-054>057-064-065-011100-
CENTRAL INDIANA

CITY           SKY/WX    TMP DP  RH WIND       PRES   REMARKS
INDIANAPOLIS   MOCLDY    63  60  90 CALM      29.89R FOG
-EAGLE CREEK   PTCLDY    62  59  90 CALM      29.90R
KOKOMO *+      CLEAR     57  54  88 N3        29.91S
MT COMFORT *+    N/A     57 N/A N/A CALM      29.90S
SHELBYVILLE    PTCLDY    61  58  90 N3        29.89S FOG

$$

INZ033-034-041-042-049-050-058-059-011100-
EAST CENTRAL INDIANA

CITY           SKY/WX    TMP DP  RH WIND       PRES   REMARKS
MUNCIE         CLEAR     59  57  93 NW3       29.90S

$$

INZ060-061-067>069-081>083-085>088-011100-
SOUTHWEST INDIANA

CITY           SKY/WX    TMP DP  RH WIND       PRES   REMARKS
EVANSVILLE     MOCLDY    70  67  90 CALM      29.88F FOG
HUNTINGBURG *+ MOCLDY    66  64  94 CALM      29.88F VSB 3/4

$$

INZ062-063-066-070>080-084-089>092-011100-
SOUTH CENTRAL AND SOUTHEAST INDIANA

CITY           SKY/WX    TMP DP  RH WIND       PRES   REMARKS
BLOOMINGTON    FOG       60  59  96 CALM      29.89S VSB 1/2
MADISON *+     MOCLDY    61  61 100 CALM      29.92R VSB 3/4

$$




USA.gov is the U.S. government's official web portal to all federal, state and local government web resources and services.